Regional Weather Roundup
Issued by NWS Wakefield, VA

Home | Current Version | Previous Version | Text Only | Print | Product List | Glossary On
Versions: 1 2 3 4 5 6 7 8 9 10 11 12 13 14 15 16 17 18 19 20 21 22 23 24 25 26 27 28
000
ASUS41 KAKQ 100315
RWRAKQ

REGIONAL WEATHER ROUNDUP
NATIONAL WEATHER SERVICE WAKEFIELD VA
1000 PM EST FRI DEC 09 2016

Note: "fair" indicates few or no clouds below 12,000 feet with no
significant weather and/or obstructions to visibility. * = Denotes
station may not report precipitation (e.g., rain,snow,etc.),
thunder or fog.

VAZ042-051-052>054-056-100400-
NORTHERN VIRGINIA

CITY           SKY/WX    TMP DP  RH WIND       PRES   REMARKS
WASH NATIONAL  CLEAR     32  17  54 W12       30.41F WCI  23
DULLES         PTCLDY    28  15  58 NW6       30.41R
FORT BELVOIR   NOT AVBL
QUANTICO       CLEAR     30  16  56 NW6       30.45R
FREDERICKSBRG* CLEAR     30  18  59 SW7       30.44R
STAFFORD*      CLEAR     28  16  59 W7        30.48R
WARRENTON      CLEAR     27  12  53 W5        30.43R
CULPEPER*      PTCLDY    24  17  72 CALM      30.46R
MANASSAS*      CLEAR    N/A N/A N/A NW6       30.43
LEESBURG*      CLEAR     32  21  64 W9        30.41R
WINCHESTER     CLOUDY    28  14  54 W10       30.39R WCI  19
FRONT ROYAL*   CLOUDY    30  14  51 W9        30.41R
LURAY*         CLOUDY    30  19  64 SW5       30.42R
$$

VAZ048-049-060>072-079>083-100400-
CENTRAL AND SOUTH CENTRAL VIRGINIA

CITY           SKY/WX    TMP DP  RH WIND       PRES   REMARKS
RICHMOND       CLEAR     29  14  53 N6        30.45R
CHESTERFIELD*  FAIR      23   1  39 CALM      30.45S
PETERSBURG*    CLEAR     22  17  81 NW3       30.45S
HANOVER        CLEAR     26  16  65 CALM      30.47R
TAPPAHANNOCK*  CLEAR     31  11  43 W3        30.45R
QUINTON*       FAIR      28  16  60 CALM      30.45R
CHARLOTTSVILLE PTCLDY    29  12  49 NW6       30.45R
GORDONSVILLE*  FAIR      29  13  50 CALM      30.45R
ORANGE*          N/A     30  14  51 SW9       30.46R
LOUISA*        CLEAR     27  19  74 CALM      30.43R
BUMPASS*       FAIR      28  14  57 CALM      30.45R
FARMVILLE*     CLEAR     26  17  70 CALM      30.44S
CREWE*         FAIR      28  14  56 CALM      30.45R
FORT PICKETT*  FAIR      27   8  43 NW5       30.44R
CHASE CITY*    FAIR      28  12  51 NW3       30.45R
CLARKSVILLE*   FAIR      28  14  54 NW3       30.45S
SOUTH HILL*    CLEAR     29  15  55 NW3       30.50R
LAWRENCEVILLE* FAIR      28  15  58 CALM      30.44R
EMPORIA*       CLEAR     27  18  69 CALM      30.47R
$$

VAZ088>098-100400-
SOUTHEAST VIRGINIA

CITY           SKY/WX    TMP DP  RH WIND       PRES   REMARKS
NORFOLK        CLEAR     37  17  44 N8G17     30.42S
VIRGINIA BEACH PTCLDY    35  17  47 N14       30.41S
NORFOLK NAVAL  PTCLDY    36  17  46 N15       30.44S
WEST POINT*    CLEAR     27  18  69 CALM      30.46S
SALUDA*        FAIR      34  18  53 NW9G21    30.43R
NEWPORT NEWS   CLEAR     31  17  56 N7        30.43S
LANGLEY AFB    CLEAR     33  15  47 N15       30.42S WCI  23
FORT EUSTIS    CLEAR     33  15  46 N7        30.41S
WILLIAMSBURG*  CLEAR     32  18  55 CALM      30.45S
HR EXEC AP*    FAIR      23  18  80 CALM      30.43R
FRANKLIN*      CLEAR     28  17  65 CALM      30.45R
US460-WAKEFLD  CLEAR     25  19  78 CALM      30.44S
$$

VAZ020-022-025-037-045-100400-
WEST CENTRAL AND SOUTHWEST VIRGINIA

CITY           SKY/WX    TMP DP  RH WIND       PRES   REMARKS
STAUNTON*      CLEAR     21  11  65 CALM      30.44R
WAYNESBORO*    FAIR      22  10  59 SW3       30.42R
HOT SPRINGS VA CLOUDY    14   7  73 W13       30.23F WCI   0
LYNCHBURG      CLEAR     25  12  58 NW5       30.46R
DANVILLE       CLEAR     27  14  58 NW6       30.46S
SOUTH BOSTON*  FAIR      28  12  51 NW6       30.46S
MARTINSVILLE   CLEAR     22  11  61 NW5       30.48R
ROANOKE        PTCLDY    24  11  57 NW7       30.47S
BLACKSBURG     CLOUDY    22  13  67 W3        30.43S
DUBLIN*        MOCLDY    21  13  70 W5        30.43S
MARION*        CLEAR     19  11  71 W7        30.41S
HILLSVILLE*    CLEAR     17  11  77 CALM      30.34R
RICHLANDS*     FAIR      17  12  80 CALM      30.39F
WISE*          MOCLDY    18  12  79 CALM      30.41S
ABINGDON*      CLEAR     19  14  81 CALM      30.43S
$$

MDZ021>025-VAZ099-100-100400-
SOUTHERN MARYLAND AND THE DELMARVA PENINSULA

CITY           SKY/WX    TMP DP  RH WIND       PRES   REMARKS
PATUXENT RIVER CLEAR     31  17  56 W10       30.41R WCI  22
BAY BRIDGE APT CLEAR     32  18  55 MISG      30.39S
LEONARDTOWN    CLEAR     30  18  59 W6        30.42R
DOVER          CLEAR     31  19  60 W13       30.34F WCI  21
GEORGETOWN     CLEAR     31  17  56 W7        30.37S
EASTON         CLEAR     32  16  51 NW14      30.42S WCI  22
CAMBRIDGE      CLEAR     32  18  55 NW13G18   30.38R WCI  22
SALISBURY      CLEAR     32  18  56 W8        30.39R
OCEAN CITY     CLEAR     31  19  61 NW7       30.38R
WALLOPS ISLAND CLEAR     31  20  63 NW5       30.41R
ACCOMACK*      PTCLDY    35  21  57 NW14G22   30.41R
$$

NCZ012>017-030>032-100400-
NORTH CENTRAL AND EASTERN NORTH CAROLINA

CITY           SKY/WX    TMP DP  RH WIND       PRES   REMARKS
ROANOKE RAPIDS FAIR      30  19  64 CALM      30.45S
RALEIGH        CLEAR     30  14  51 CALM      30.47R
ELIZABETH CITY CLEAR     28  19  69 W7        30.43R
AHOSKIE*       CLEAR     26  20  79 CALM      30.45S
EDENTON*       CLEAR     30  23  75 CALM      30.45S
CURRITUCK*     CLEAR     32  19  58 W5        30.43S
KILL DEVIL HLS CLEAR     37  23  58 NW5       30.40S
MANTEO         CLEAR     37  17  43 N10G16    30.42S
CAPE HATTERAS  CLEAR     39  19  44 VRB6      30.42S
TARBORO*       NOT AVBL
GOLDSBORO      CLEAR     32  16  51 CALM      30.44S
WASHINGTON     CLEAR     28  19  69 CALM      30.46R
GREENVILLE     CLEAR     28  23  80 CALM      30.45S
NEW BERN       CLEAR     30  21  69 CALM      30.46R
WILMINGTON     CLEAR     30  24  78 CALM      30.47R
$$

VAZ048-100400-
ELSEWHERE

CITY           SKY/WX    TMP DP  RH WIND       PRES   REMARKS
HARRISBURG PA  PTCLDY    30  19  63 W8        30.34F
BALTIMORE      PTCLDY    28  17  63 W8        30.38S
ANNAPOLIS      CLEAR     34  19  54 NW9       30.39S
ANDREWS AFB    CLEAR     30  17  58 NW12      30.38S WCI  20
PHILADELPHIA   PTCLDY    32  18  56 W9        30.35S
HENDERSON NC   CLEAR     26  11  52 NW3       30.45S
GREENSBORO     CLEAR     28  13  53 N5        30.44S
ROCKY MOUNT    CLEAR     30  18  60 NW5       30.47R
$$

VAZ100-100400-
MARINE

STATION/POSITION TIME  TEMP    WIND        PRES    WAVE   SWELL
                       AIR SEA DIR/SP/G            HT/PER HT/PER
                 (UTC) (F)     (DEG/KT/KT) (MB)    (FT/S) (FT/S)
BRANDYWINE LGT   0248   34     330/ 18/ 24   N/A
CAPE MAY NJ      0248   35 41  320/ 16/ 26 1026.9F
LEWES DE         0248   34 44  310/ 22/ 25 1027.6F
OCEAN-CITY-INLET 0248      45  310/  7/ 10 1028.9R
WACHAPREAGUE VA  0248   34 41  280/  2/  8 1029.7R
THOMAS POINT MD  0300   33 46  290/ 14/ 16   N/A
GOOSES REEF MD   0250   34     300/ 16/ 19 1030.0R
COVE POINT MD    0248   32     320/ 12/ 18 1030.2R
SOLOMONS ISLAND  0248      48  300/  8/ 14   N/A
BISHOPS HEAD MD  0248   33 37  320/ 12/ 17 1030.0R
PINEY POINT MD   0248          340/ 19/ 23   N/A
POTOMAC MD       0250   36     330/ 17/ 25 1029.4R
CAMBRIDGE MD     0248   35 44  320/ 14/ 19 1028.3R
LEWISETTA VA     0248   34 44  320/ 14/ 17 1029.9S
RAPPAHANNOCK LGT 0248          320/ 20/ 22 1030.4R
STINGRAY PT      0250   35     340/ 14/ 17 1030.8R
YORK RVR RNG VA  0248   36     340/ 17/ 20 1030.0R
YORKTOWN VA      0248   35 49  320/ 11/ 14 1030.2S
JAMESTOWN VA     0250   34     340/  6/  8   N/A
DOMINION TERM VA 0248   36     350/  2/  6 1030.3S
KIPTOPEKE VA     0248      47  350/ 19/ 26   N/A
CHES BAY BRIDGE  0248   38 50  340/ 18/ 22 1029.8S
CAPE HENRY VA    0248   39     340/ 19/ 22   N/A
WILLOUBY STN VA  0248   36     340/ 13/ 14 1030.8F
S CRANEY ISL VA  0248   37     340/  9/ 13 1030.0S
CAPE HENRY BUOY  0242      53                N/A     4/ 4
1ST LANDING BUOY 0250   39                 1030.4R
CAPE CHARLES BUO 0256      51                N/A     3/ 4
OFFSHORE WE BUOY 0251      54                N/A     5/ 5
64NM E OF VA BCH 0250   43 58  330/ 21/ 27 1028.1S   6/ 6   2/15
DUCK PIER NC     0248   38 52  310/ 13/ 17 1029.4R
44100 DUCK FRF   0235      55                N/A     5/ 6
OREGON INLET NC  0236   38 51  310/ 11/ 14 1029.9R
HATTERAS NC      0248      54  340/ 16/ 19 1029.6F
DIAMOND SHLS NC  0250   43 77  360/ 17/ 23 1029.6S   5/10   3/10
CAPE LOOKOUT NC  0200   39     340/ 12/ 14 1030.2R
$$




USA.gov is the U.S. government's official web portal to all federal, state and local government web resources and services.